Tue, 29 Sep 2009 13:42:33 +0000 Ryan C. Gordon Removed isCustom ... not used any more. SDL-1.2
Tue, 29 Sep 2009 13:40:34 +0000 Ryan C. Gordon Removed duplicate memset() calls. SDL-1.2
Tue, 29 Sep 2009 13:07:36 +0000 Ryan C. Gordon Fixed SDL_VIDEO_WINDOW_POS environment variable for Quartz target. SDL-1.2
Tue, 29 Sep 2009 11:28:43 +0000 Ryan C. Gordon Batch x11 dga mouse motion events into a single SDL event. SDL-1.2
Tue, 29 Sep 2009 06:31:29 +0000 Sam Lantinga Reverted revision 4880 since this breaks installation on Mac OS X. SDL-1.2
Tue, 29 Sep 2009 04:03:58 +0000 Ryan C. Gordon Fixed strict aliasing (or inline asm?) issue. SDL-1.2
Tue, 29 Sep 2009 00:37:36 +0000 Sam Lantinga Temporary band-aid for bug #575 SDL-1.2
Mon, 28 Sep 2009 18:21:58 +0000 Ryan C. Gordon Removed -rpath from link line. SDL-1.2
Mon, 28 Sep 2009 18:16:48 +0000 Ryan C. Gordon Added *.dSYM (Mac OS X debug symbols) to svn:ignore list for test dir. SDL-1.2
Mon, 28 Sep 2009 07:58:58 +0000 Sam Lantinga Fixed compile issue SDL-1.2
Mon, 28 Sep 2009 07:04:25 +0000 Sam Lantinga Added keyboard output for debugging bug #659 SDL-1.2
Mon, 28 Sep 2009 06:23:22 +0000 Sam Lantinga Vitaly Minko to slouken SDL-1.2
Sun, 27 Sep 2009 23:22:57 +0000 Sam Lantinga Fixed bug #716 SDL-1.2
Sun, 27 Sep 2009 22:41:34 +0000 Sam Lantinga Fixed bug #616 SDL-1.2
Sun, 27 Sep 2009 22:29:13 +0000 Sam Lantinga Improved bug #759 SDL-1.2
Sun, 27 Sep 2009 21:44:55 +0000 Sam Lantinga Fixed bug #582 SDL-1.2
Sun, 27 Sep 2009 19:23:04 +0000 Sam Lantinga Better fix from Max Horn SDL-1.2
Sun, 27 Sep 2009 06:20:27 +0000 Sam Lantinga Fixed bug #725 SDL-1.2
Sun, 27 Sep 2009 05:18:43 +0000 Sam Lantinga Fixed bug #713 SDL-1.2
Sun, 27 Sep 2009 04:49:30 +0000 Sam Lantinga Added missing DirectX data SDL-1.2
Sun, 27 Sep 2009 01:31:30 +0000 Sam Lantinga Fixed bug #586 SDL-1.2
Sat, 26 Sep 2009 23:17:08 +0000 Sam Lantinga Fixed bug #810 SDL-1.2
Sat, 26 Sep 2009 21:38:07 +0000 Sam Lantinga Fixed 32-bit build SDL-1.2
Sat, 26 Sep 2009 11:42:39 +0000 Sam Lantinga Fixed bug #806 SDL-1.2
Sat, 26 Sep 2009 10:37:28 +0000 Sam Lantinga Fixed bug #797 SDL-1.2
Sat, 26 Sep 2009 10:05:07 +0000 Sam Lantinga Fixed bug #734 SDL-1.2
Sat, 26 Sep 2009 06:01:27 +0000 Sam Lantinga Fixed crash with right side up BMP files SDL-1.2
Wed, 23 Sep 2009 07:18:02 +0000 Sam Lantinga Fixed bug #719 SDL-1.2
Wed, 23 Sep 2009 07:07:44 +0000 Sam Lantinga Fixed bug #732 SDL-1.2
Wed, 23 Sep 2009 07:01:50 +0000 Sam Lantinga Fixed bug #803 SDL-1.2
Wed, 23 Sep 2009 06:57:12 +0000 Sam Lantinga Potentially fixed bug #774 SDL-1.2
Wed, 23 Sep 2009 06:56:28 +0000 Sam Lantinga Fixed endianness issues with fullscreen mode SDL-1.2
Wed, 23 Sep 2009 06:35:28 +0000 Sam Lantinga Possibly fixed bug #601, definitely fixed a potential issue with threads SDL-1.2
Wed, 23 Sep 2009 05:16:54 +0000 Sam Lantinga Added some extra headers SDL-1.2
Tue, 22 Sep 2009 04:35:46 +0000 Sam Lantinga Added cast macros so SDL_net will compile with SDL 1.2 SDL-1.2
Tue, 22 Sep 2009 02:42:11 +0000 Sam Lantinga Fixed compile error on Win32 SDL-1.2
Tue, 22 Sep 2009 02:37:30 +0000 Sam Lantinga Added missing newline SDL-1.2
Tue, 22 Sep 2009 02:25:59 +0000 Sam Lantinga Max correctly pointed out that this will cause unexpected change in application SDL-1.2
Tue, 22 Sep 2009 02:22:14 +0000 Sam Lantinga Whoops, this breaks building on Mac OS X 10.4 SDL-1.2
Mon, 21 Sep 2009 12:04:11 +0000 Sam Lantinga Added header guards for SDLMain.h SDL-1.2
Mon, 21 Sep 2009 11:48:03 +0000 Sam Lantinga Fix for expression error by Torsten Giebl - Thanks! :) SDL-1.2
Mon, 21 Sep 2009 11:34:50 +0000 Sam Lantinga Fixed bug #638 SDL-1.2
Mon, 21 Sep 2009 11:32:58 +0000 Sam Lantinga Fixed bug #637 SDL-1.2
Mon, 21 Sep 2009 11:30:54 +0000 Sam Lantinga Whoops, need both the header and the library! SDL-1.2
Mon, 21 Sep 2009 11:14:36 +0000 Sam Lantinga Fixed bug #727 SDL-1.2
Mon, 21 Sep 2009 11:04:32 +0000 Sam Lantinga Fixed bug #714 SDL-1.2
Mon, 21 Sep 2009 10:23:07 +0000 Sam Lantinga Fixed bug #674 SDL-1.2
Mon, 21 Sep 2009 09:58:43 +0000 Sam Lantinga Fixed bug #795 SDL-1.2
Mon, 21 Sep 2009 09:54:33 +0000 Sam Lantinga Fixed bug #695 SDL-1.2
Mon, 21 Sep 2009 09:47:53 +0000 Sam Lantinga Fixed bug #778 SDL-1.2
Mon, 21 Sep 2009 09:38:10 +0000 Sam Lantinga Fixed bug #706 SDL-1.2
Mon, 21 Sep 2009 09:27:08 +0000 Sam Lantinga Fixed bug #698 SDL-1.2
Mon, 21 Sep 2009 09:18:42 +0000 Sam Lantinga Fixed bug #615 SDL-1.2
Mon, 21 Sep 2009 08:58:51 +0000 Sam Lantinga Oh yeah, we have GLX support too. SDL-1.2
Mon, 21 Sep 2009 08:39:52 +0000 Sam Lantinga Fixed bug #577 SDL-1.2
Mon, 21 Sep 2009 08:31:15 +0000 Sam Lantinga Fixed bug #591 SDL-1.2
Mon, 21 Sep 2009 08:03:00 +0000 Sam Lantinga Fixed bug #572 SDL-1.2
Mon, 21 Sep 2009 07:59:44 +0000 Sam Lantinga Fixed bug #571.. I think. :) SDL-1.2
Mon, 21 Sep 2009 07:32:26 +0000 Sam Lantinga Fixed bug #570 SDL-1.2
Mon, 21 Sep 2009 07:28:03 +0000 Sam Lantinga Updated the version to 1.2.14 for the next release. SDL-1.2